Simultaneous Nadir Overpasses (SNOs) Predictions

Prediction of SNOs between AQUA and NOAA-19 Satellite Orbit:

Table of predicted SNOs for the next 14.0 days since TLE Epoch: 11/24/2017
Index Date (AQUA) Time (AQUA) Lat,Lon (AQUA) SZA (AQUA ) Date (NOAA-19) Time (NOAA-19) Lat,Lon (NOAA-19) SZA (NOAA-19 ) Distance(km) Time Diff (sec)
1 11/25/2017 15:33:33 -80.92, 86.44 76.53 11/25/2017 15:33:17 -80.91, 86.48 76.53 1.68 16
2 11/27/2017 21:07:17 80.92,-176.93 103.90 11/27/2017 21:07:05 80.91,-176.86 103.89 1.54 12
3 11/27/2017 21:56:41 -80.84, -8.31 76.25 11/27/2017 21:57:46 -80.93, -4.20 76.55 73.18 65
4 11/30/2017 02:41:01 -80.90, -80.14 75.75 11/30/2017 02:40:42 -80.91, -80.00 75.75 2.82 19
5 12/02/2017 08:14:45 80.90, 16.39 104.62 12/02/2017 08:14:30 80.91, 16.49 104.63 1.86 15
6 12/02/2017 09:04:12 -80.90,-176.02 75.37 12/02/2017 09:05:25 -80.91,-175.94 75.40 1.54 73
7 12/04/2017 13:48:30 -80.92, 112.76 75.02 12/04/2017 13:48:09 -80.90, 112.72 75.02 1.74 21
8 12/06/2017 19:22:13 80.90,-150.44 105.24 12/06/2017 19:21:55 80.91,-150.31 105.24 2.42 18




NCC Satellite Simultaneous Nadir Overpasses (SNOs) Prediction Service
